Eagle River, WI

1:53 AM CDT on March 25, 2017 (GMT -0500)
Eagle River Union

Weather History for KEGV - October, 2011

Change the Weather History Date:

Saturday, October 22, 2011

  Actual Average Record
Temperature  
Mean Temperature 39 °F -  
Max Temperature 51 °F 45 °F 66 °F (2000)
Min Temperature 27 °F 28 °F 17 °F (1998)
Degree Days  
Heating Degree Days 26    
Moisture  
Dew Point 33 °F    
Average Humidity 82    
Maximum Humidity 100    
Minimum Humidity 50    
Precipitation  
Precipitation 0.00 in - - ()
Sea Level Pressure  
Sea Level Pressure 30.00 in    
Wind  
Wind Speed 2 mph (NNW)    
Max Wind Speed 10 mph    
Max Gust Speed -    
Visibility 10 miles    
Events      
Averages and records for this station are not official NWS values.
T = Trace of Precipitation, MM = Missing Value Source: NWS Daily Summary

Daily Weather History Graph

Daily Weather History Graph

Search for Another Location

Airport or City:

Trip Planner

Search our weather history database for the weather conditions in past years. The results will help you decide how hot, cold, wet, or windy it might be!

Date:

Astronomy

Oct. 22, 2011 Rise Set
Actual Time 7:23 AM CDT 5:59 PM CDT
Civil Twilight 6:52 AM CDT 6:29 PM CDT
Nautical Twilight 6:17 AM CDT 7:04 PM CDT
Astronomical Twilight 5:43 AM CDT 7:38 PM CDT
Moon 2:05 AM CDT (10/22) 3:29 PM CDT (10/22)
Length of Visible Light 11h 37m
Length of Day
10h 36m
Waning Crescent, 23% of the Moon is Illuminated
Oct 22
Waning Crescent
Oct 26
New
Nov 2
First Quarter
Nov 10
Full
Nov 18
Last Quarter

Hourly Weather History & Observations

Time (CDT) Temp. Windchill Dew Point Humidity Pressure Visibility Wind Dir Wind Speed Gust Speed Precip Events Conditions
12:15 AM 32.0 °F - 32.0 °F 100% 29.95 in 10.0 mi Calm Calm - N/A   Clear
12:35 AM 32.0 °F - 32.0 °F 100% 29.95 in 10.0 mi Calm Calm - N/A   Clear
12:55 AM 32.0 °F - 32.0 °F 100% 29.95 in 10.0 mi Calm Calm - N/A   Clear
1:15 AM 32.0 °F - 32.0 °F 100% 29.95 in 10.0 mi Calm Calm - N/A   Clear
1:35 AM 32.0 °F - 32.0 °F 100% 29.95 in 10.0 mi Calm Calm - N/A   Clear
2:15 AM 31.1 °F - 31.1 °F 100% 29.94 in 10.0 mi Calm Calm - N/A   Clear
2:35 AM 31.3 °F - 31.3 °F 100% 29.94 in 10.0 mi Calm Calm - N/A   Clear
2:55 AM 30.6 °F - 30.6 °F 100% 29.94 in 10.0 mi Calm Calm - N/A   Scattered Clouds
3:15 AM 30.2 °F - 30.2 °F 100% 29.94 in 10.0 mi Calm Calm - N/A   Scattered Clouds
3:35 AM 30.2 °F - 30.2 °F 100% 29.94 in 10.0 mi Calm Calm - N/A   Clear
3:55 AM 29.5 °F - 29.5 °F 100% 29.94 in 10.0 mi Calm Calm - N/A   Clear
4:15 AM 29.3 °F - 29.3 °F 100% 29.95 in 10.0 mi Calm Calm - N/A   Clear
4:35 AM 29.3 °F - 29.3 °F 100% 29.96 in 10.0 mi Calm Calm - N/A   Clear
4:55 AM 28.6 °F - 28.6 °F 100% 29.96 in 10.0 mi Calm Calm - N/A   Clear
5:35 AM 28.2 °F - 28.2 °F 100% 29.97 in 10.0 mi Calm Calm - N/A   Clear
6:35 AM 27.7 °F - 27.7 °F 100% 29.98 in 10.0 mi Calm Calm - N/A   Clear
6:55 AM 27.1 °F - 27.1 °F 100% 29.98 in 10.0 mi Calm Calm - N/A   Clear
7:15 AM 27.7 °F - 27.7 °F 100% 29.99 in 10.0 mi Calm Calm - N/A   Clear
7:35 AM 27.9 °F - 27.9 °F 100% 29.99 in 10.0 mi Calm Calm - N/A   Clear
7:55 AM 27.9 °F 24.0 °F 27.9 °F 100% 30.00 in 10.0 mi NW 3.5 mph - N/A   Clear
8:15 AM 29.1 °F 25.4 °F 29.1 °F 100% 30.01 in 10.0 mi WNW 3.5 mph - N/A   Clear
8:35 AM 35.4 °F 32.6 °F 35.1 °F 99% 30.01 in 10.0 mi NW 3.5 mph - N/A   Clear
8:55 AM 38.3 °F 34.8 °F 36.9 °F 95% 30.01 in 10.0 mi NW 4.6 mph - N/A   Clear
9:15 AM 40.5 °F 35.8 °F 37.9 °F 91% 30.02 in 10.0 mi NW 6.9 mph - N/A   Clear
9:35 AM 42.4 °F 37.5 °F 39.2 °F 88% 30.02 in 10.0 mi NNW 8.1 mph - N/A   Clear
9:55 AM 44.4 °F 40.0 °F 37.9 °F 78% 30.02 in 10.0 mi NNW 8.1 mph - N/A   Clear
10:35 AM 46.9 °F - 37.6 °F 70% 30.03 in 10.0 mi NNW 6.9 mph - N/A   Clear
10:55 AM 47.8 °F - 37.6 °F 68% 30.03 in 10.0 mi NNW 8.1 mph - N/A   Scattered Clouds
11:15 AM 47.8 °F - 37.4 °F 67% 30.03 in 10.0 mi NNW 8.1 mph - N/A   Mostly Cloudy
11:35 AM 48.4 °F - 37.6 °F 66% 30.03 in 10.0 mi North 8.1 mph - N/A   Mostly Cloudy
11:55 AM 49.1 °F - 37.8 °F 65% 30.03 in 10.0 mi NW 8.1 mph - N/A   Scattered Clouds
12:15 PM 50.0 °F - 36.9 °F 61% 30.03 in 10.0 mi North 5.8 mph - N/A   Mostly Cloudy
12:35 PM 49.3 °F - 35.8 °F 60% 30.03 in 10.0 mi NNW 10.4 mph - N/A   Overcast
12:55 PM 48.9 °F - 35.6 °F 60% 30.03 in 10.0 mi NNW 9.2 mph - N/A   Overcast
1:15 PM 48.9 °F - 35.8 °F 61% 30.03 in 10.0 mi North 10.4 mph - N/A   Overcast
1:35 PM 49.5 °F - 34.5 °F 56% 30.03 in 10.0 mi NNW 9.2 mph - N/A   Overcast
1:55 PM 49.8 °F - 35.1 °F 57% 30.02 in 10.0 mi North 8.1 mph - N/A   Overcast
2:15 PM 49.5 °F - 35.4 °F 58% 30.02 in 10.0 mi North 8.1 mph - N/A   Overcast
2:35 PM 49.6 °F - 35.2 °F 58% 30.02 in 10.0 mi North 5.8 mph - N/A   Overcast
2:55 PM 50.0 °F - 34.7 °F 56% 30.02 in 10.0 mi NNW 6.9 mph - N/A   Mostly Cloudy
3:15 PM 49.6 °F - 34.2 °F 55% 30.02 in 10.0 mi NNW 5.8 mph - N/A   Scattered Clouds
3:35 PM 51.4 °F - 33.3 °F 50% 30.02 in 10.0 mi West 6.9 mph - N/A   Mostly Cloudy
3:55 PM 51.8 °F - 33.6 °F 50% 30.02 in 10.0 mi North 6.9 mph - N/A   Scattered Clouds
4:15 PM 50.0 °F - 33.4 °F 53% 30.02 in 10.0 mi North 3.5 mph - N/A   Clear
4:35 PM 49.8 °F - 32.9 °F 52% 30.01 in 10.0 mi North 5.8 mph - N/A   Clear
4:55 PM 50.2 °F - 32.5 °F 51% 30.01 in 10.0 mi Calm Calm - N/A   Clear
5:15 PM 49.8 °F - 32.4 °F 51% 30.01 in 10.0 mi North 3.5 mph - N/A   Clear
5:35 PM 48.6 °F - 32.4 °F 54% 30.01 in 10.0 mi Calm Calm - N/A   Clear
5:55 PM 45.7 °F - 33.3 °F 62% 30.02 in 10.0 mi Calm Calm - N/A   Clear
6:15 PM 42.3 °F - 34.5 °F 74% 30.02 in 10.0 mi Calm Calm - N/A   Clear
6:35 PM 39.6 °F - 34.2 °F 81% 30.03 in 10.0 mi Calm Calm - N/A   Clear
6:55 PM 37.4 °F - 34.2 °F 88% 30.03 in 10.0 mi Calm Calm - N/A   Clear
7:15 PM 36.0 °F - 35.8 °F 99% 30.03 in 10.0 mi Calm Calm - N/A   Clear
7:35 PM 34.2 °F - 34.2 °F 100% 30.03 in 10.0 mi Calm Calm - N/A   Clear
7:55 PM 33.3 °F - 33.3 °F 100% 30.03 in 10.0 mi Calm Calm - N/A   Clear
8:15 PM 32.2 °F - 32.2 °F 100% 30.02 in 10.0 mi Calm Calm - N/A   Clear
8:35 PM 32.0 °F - 32.0 °F 100% 30.01 in 2.0 mi Calm Calm - N/A   Clear
8:55 PM 31.1 °F - 31.1 °F 100% 30.02 in 7.0 mi Calm Calm - N/A   Clear
9:15 PM 30.2 °F - 30.2 °F 100% 30.02 in 3.0 mi Calm Calm - N/A   Clear
9:35 PM 30.0 °F - 30.0 °F 100% 30.02 in 10.0 mi Calm Calm - N/A   Clear
9:55 PM 29.1 °F - 29.1 °F 100% 30.01 in 1.2 mi Calm Calm - N/A   Scattered Clouds
10:15 PM 28.6 °F - 28.6 °F 100% 30.01 in 0.8 mi Calm Calm - N/A   Mostly Cloudy
10:35 PM 28.2 °F - 28.2 °F 100% 30.01 in 0.8 mi Calm Calm - N/A   Mist
10:55 PM 28.2 °F - 28.2 °F 100% 30.01 in 5.0 mi Calm Calm - N/A   Clear
11:15 PM 28.0 °F - 28.0 °F 100% 30.00 in 4.0 mi Calm Calm - N/A   Clear
11:35 PM 26.8 °F - 26.8 °F 100% 29.99 in 0.8 mi Calm Calm - N/A   Mostly Cloudy
11:55 PM 27.0 °F - 27.0 °F 100% 29.98 in 0.8 mi Calm Calm - N/A   Mostly Cloudy